Weather History for El Centro, CA

Change the Weather History Date:

Wednesday, November 7, 2012

  Actual Average Record
Temperature  
Mean Temperature 74 °F -  
Max Temperature 90 °F 77 °F 91 °F (2006)
Min Temperature 59 °F 52 °F 45 °F (1996)
Cooling Degree Days 10    
Growing Degree Days 24 (Base 50)    
Moisture  
Dew Point 36 °F    
Average Humidity 27    
Maximum Humidity 38    
Minimum Humidity 16    
Precipitation  
Precipitation 0.00 in - - ()
Sea Level Pressure  
Sea Level Pressure 29.94 in    
Wind  
Wind Speed 5 mph (SW)    
Max Wind Speed 10 mph    
Max Gust Speed -    
Visibility 10 miles    
Events      
Averages and records for this station are not official NWS values.
T = Trace of Precipitation, MM = Missing Value Source: NWS Daily Summary

Daily Weather History Graph

Daily Weather History Graph

Search for Another Location

Airport:

Trip Planner

Search our weather history database for the weather conditions in past years. The results will help you decide how hot, cold, wet, or windy it might be!

Date:

Astronomy

Nov. 07, 2012 Rise Set
Actual Time 6:06 AM PST 4:46 PM PST
Civil Twilight 5:40 AM PST 5:11 PM PST
Nautical Twilight 5:10 AM PST 5:41 PM PST
Astronomical Twilight 4:41 AM PST 6:10 PM PST
Moon No Moon Rise 12:37 PM PST (11/7)
Length of Visible Light 11h 31m
Length of Day
10h 39m
Last Quarter, 42% of the Moon is Illuminated
Nov 7
Last Quarter
Nov 13
New
Nov 20
First Quarter
Nov 28
Full
Dec 6
Last Quarter

Hourly Weather History & Observations

Time (PST) Temp. Dew Point Humidity Pressure Visibility Wind Dir Wind Speed Gust Speed Precip Events Conditions
12:56 AM 60.1 °F 34.0 °F 38% 29.99 in 10.0 mi West 5.8 mph - N/A   Clear
1:56 AM 61.0 °F 34.0 °F 36% 29.98 in 10.0 mi West 5.8 mph - N/A   Clear
2:56 AM 60.1 °F 33.1 °F 36% 29.97 in 10.0 mi West 8.1 mph - N/A   Clear
3:56 AM 59.0 °F 33.1 °F 38% 29.97 in 10.0 mi WSW 3.5 mph - N/A   Clear
4:56 AM 60.1 °F 30.9 °F 33% 29.98 in 10.0 mi SW 3.5 mph - N/A   Clear
5:56 AM 61.0 °F 30.0 °F 31% 29.99 in 10.0 mi West 3.5 mph - N/A   Clear
6:56 AM 60.1 °F 34.0 °F 38% 30.01 in 10.0 mi SSW 4.6 mph - N/A   Clear
7:56 AM 70.0 °F 33.1 °F 26% 30.02 in 10.0 mi Calm Calm - N/A   Partly Cloudy
8:56 AM 75.9 °F 35.1 °F 23% 30.01 in 10.0 mi Calm Calm - N/A   Partly Cloudy
9:56 AM 82.0 °F 39.0 °F 22% 30.00 in 10.0 mi Calm Calm - N/A   Partly Cloudy
10:56 AM 84.9 °F 39.9 °F 20% 29.98 in 10.0 mi Calm Calm - N/A   Partly Cloudy
11:56 AM 88.0 °F 37.9 °F 17% 29.94 in 10.0 mi ENE 4.6 mph - N/A   Clear
12:56 PM 89.1 °F 39.9 °F 18% 29.91 in 10.0 mi Variable 3.5 mph - N/A   Partly Cloudy
1:56 PM 90.0 °F 37.9 °F 16% 29.89 in 10.0 mi Calm Calm - N/A   Partly Cloudy
2:56 PM 90.0 °F 42.1 °F 19% 29.88 in 10.0 mi ESE 5.8 mph - N/A   Clear
3:56 PM 88.0 °F 41.0 °F 19% 29.87 in 10.0 mi SE 4.6 mph - N/A   Clear
4:56 PM 82.9 °F 45.0 °F 26% 29.86 in 10.0 mi SSE 3.5 mph - N/A   Clear
5:56 PM 75.9 °F 37.9 °F 25% 29.88 in 10.0 mi SSW 4.6 mph - N/A   Clear
6:56 PM 78.1 °F 37.0 °F 23% 29.88 in 10.0 mi SW 10.4 mph - N/A   Clear
7:56 PM 77.0 °F 36.0 °F 23% 29.89 in 10.0 mi WSW 9.2 mph - N/A   Clear
8:56 PM 73.0 °F 39.0 °F 29% 29.89 in 10.0 mi WSW 10.4 mph - N/A   Clear
9:56 PM 69.1 °F 35.1 °F 29% 29.89 in 10.0 mi WNW 10.4 mph - N/A   Clear
10:56 PM 70.0 °F 34.0 °F 27% 29.89 in 10.0 mi WSW 5.8 mph - N/A   Clear
11:56 PM 71.1 °F 33.1 °F 25% 29.88 in 10.0 mi WSW 4.6 mph - N/A   Clear